Regional Weather Roundup
Issued by NWS

Home | Current Version | Previous Version | Text Only | Print | Product List | Glossary Off
Versions: 1 2 3 4 5 6 7 8 9 10 11 12 13 14 15 16 17 18 19 20 21 22 23 24 25 26 27 28 29 30 31 32 33 34 35 36 37 38 39 40 41 42 43 44 45 46 47 48 49 50

000
ASUS43 KOAX 211610
RWRNE

WEATHER ROUNDUP FOR NEBRASKA
NATIONAL WEATHER SERVICE OMAHA NE
1000 AM CST FRI NOV 21 2014

NOTES: SATELLITE DATA IS BEING USED TO AUGMENT CLOUD COVER ABOVE
       12000 FEET.
       "FAIR" INDICATES FEW OR NO CLOUDS BELOW 12,000 FEET WITH NO
       SIGNIFICANT WEATHER AND/OR OBSTRUCTIONS TO VISIBILITY.

  * THESE STATIONS DO NOT REPORT WEATHER SUCH AS RAIN...SNOW OR FOG.

NEZ001>004-019>022-054>056-211700-
NEBRASKA PANHANDLE

CITY           SKY/WX    TMP DP  RH WIND       PRES   REMARKS
SCOTTSBLUFF    MOSUNNY   34  22  61 E3        29.94R
ALLIANCE       CLOUDY    38  25  59 S5        29.91S WCI  34
CHADRON        PTSUNNY   30  25  81 CALM      29.89S
KIMBALL        PTSUNNY   38  24  57 CALM      29.94R
SIDNEY         CLOUDY    40  25  55 NW6       29.96R
$$

NEZ057>060-069>072-079>082-211700-
SOUTHWEST NEBRASKA

CITY           SKY/WX    TMP DP  RH WIND       PRES   REMARKS
NORTH PLATTE   PTSUNNY   31  24  75 S7        30.00F WCI  24
IMPERIAL       CLOUDY    35  26  69 S7        30.00S WCI  29
LEXINGTON      PTSUNNY   34  25  71 S12       30.05F WCI  25
MCCOOK         PTSUNNY   38  27  64 S6        30.05S WCI  33
OGALLALA       PTSUNNY   35  28  74 CALM      29.97F
$$

NEZ005>010-023>029-035>040-094-211700-
NORTH CENTRAL NEBRASKA

CITY           SKY/WX    TMP DP  RH WIND       PRES   REMARKS
VALENTINE      PTSUNNY   36  26  67 SW8       29.89S WCI  30
AINSWORTH      CLOUDY    32  24  73 SW17      29.92S WCI  21
BROKEN BOW     CLOUDY    34  25  69 SW10      30.02F WCI  26
O`NEILL        PTSUNNY   32  27  80 S15G22    29.98F WCI  22
ORD            PTSUNNY   32  24  72 S10       30.05S WCI  24
THEDFORD       PTSUNNY   35  26  69 S17G24    29.95F WCI  25
$$

NEZ041-046>049-061>064-073>077-083>087-211700-
SOUTH CENTRAL NEBRASKA

CITY           SKY/WX    TMP DP  RH WIND       PRES   REMARKS
GRAND ISLAND   PTSUNNY   29  20  69 S10       30.12F WCI  20
AURORA         CLOUDY    27  21  79 S10G16    30.12S WCI  17
HASTINGS       CLOUDY    29  20  69 S9        30.10F WCI  20
HEBRON         CLOUDY    30  22  71 S9        30.15S WCI  22
HOLDREGE       PTSUNNY   30  22  72 S6        30.07F WCI  24
KEARNEY *      PTSUNNY   30  21  69 S10       30.10F WCI  21
YORK           CLOUDY    25  21  86 S7        30.14S WCI  17
$$

NEZ011>018-030>034-042>045-211700-
NORTHEAST NEBRASKA

CITY           SKY/WX    TMP DP  RH WIND       PRES   REMARKS
NORFOLK        MOSUNNY   27  20  75 S12       30.11F WCI  17
ALBION         PTSUNNY   27  20  76 S13       30.10F WCI  16
BLAIR          SUNNY     29  19  67 S13       30.16F WCI  18
COLUMBUS *     PTSUNNY   27  19  74 S9        30.16S WCI  17
FREMONT        MOSUNNY   28  21  73 SE12G17   30.17F WCI  18
TEKAMAH        SUNNY     28  19  69 S14       30.19F WCI  17
WAYNE          MOSUNNY   27  20  75 S20       30.13F WCI  14
$$

NEZ050>053-065>068-078-088>093-211700-
SOUTHEAST NEBRASKA

CITY           SKY/WX    TMP DP  RH WIND       PRES   REMARKS
LINCOLN        PTSUNNY   27  20  75 S8        30.19F WCI  19
OMAHA EPPLEY   PTSUNNY   28  19  69 SE13      30.21F WCI  17
BEATRICE       CLOUDY    31  22  69 S9        30.16F WCI  23
FALLS CITY     PTSUNNY   28  20  71 SE10      30.20F WCI  19
NEBRASKA CITY  MOSUNNY   26  17  68 SE7       30.20F WCI  18
PLATTSMOUTH    SUNNY     28  18  67 SE14      30.20S WCI  17
$$

NEZ044-045-051>053-067-211700-
OMAHA AREA

CITY           SKY/WX    TMP DP  RH WIND       PRES   REMARKS
OMAHA EPPLEY   PTSUNNY   28  19  69 SE13      30.21F WCI  17
BLAIR          SUNNY     29  19  67 S13       30.16F WCI  18
FREMONT        MOSUNNY   28  21  73 SE12G17   30.17F WCI  18
MILLARD        SUNNY     29  20  69 SE14      30.19F WCI  18
OFFUTT AFB     SUNNY     28  19  68 SE13      30.20F WCI  18
PLATTSMOUTH    SUNNY     28  18  67 SE14      30.20S WCI  17
WAHOO          FAIR      28  20  71 S12       30.18F WCI  18
$$



USA.gov is the U.S. government's official web portal to all federal, state and local government web resources and services.